Wind_Speed
15 14 12 12 15 15 16 15 14 14 14 15 16 18 20 18 17 19 22 23 20 15 14 13 11 11 11 11 10 10 10 10 10 10 10 10 10 10 11 11 11 10 10 9 8 7 7 6 5 4 3 3 3 2 2 2 3 4 5 4 4 5 7 9 10 10 9 10 11 12 11 11 12 11 12 13 14 15 16 17 18 19 19 18 17
15 14 13 12 11 10 10 10 10 10 11 13 15 17 19 17 16 18 20 20 17 17 17 14 13 13 13 12 11 11 11 10 9 9 8 7 7 7 7 8 8 8 7 6 6 5 5 5 4 4 4 5 5 5 5 5 5 6 6 5 5 7 8 10 11 10 11 11 11 11 11 11 12 13 13 15 17 19 20 20 19 20 21 21 21
16 14 13 12 11 10 9 8 8 8 9 10 12 14 14 12 13 16 15 12 13 18 19 16 15 15 15 14 13 12 11 10 9 8 7 6 6 5 5 5 5 5 5 5 5 5 5 5 5 5 6 6 7 8 8 6 4 6 7 7 7 8 9 9 8 9 12 12 12 12 12 12 14 15 16 17 19 21 21 21 21 20 20 21 23
17 16 14 11 10 10 10 9 8 8 8 9 10 11 10 9 11 11 11 14 17 18 19 18 17 17 16 16 15 14 13 11 11 10 8 7 7 7 6 6 6 7 7 7 7 7 7 7 7 7 7 8 9 10 10 9 8 9 9 10 10 10 9 8 8 10 12 13 14 15 16 17 17 17 19 20 20 21 21 22 22 22 23 22 22
17 15 12 10 9 10 10 9 8 8 9 9 9 10 9 10 11 12 15 18 18 19 21 20 19 19 18 18 17 16 14 14 13 12 10 10 10 10 10 9 10 10 10 10 10 10 9 9 9 8 8 9 9 10 10 10 11 12 11 9 9 9 8 8 10 11 12 14 17 18 19 21 19 18 21 21 19 19 20 21 21 22 26 28 26
15 13 11 9 9 10 10 9 9 9 10 10 10 10 9 9 11 15 18 18 19 21 22 22 21 20 21 20 19 19 17 16 16 15 14 13 13 13 13 13 13 14 14 13 13 13 13 12 12 11 10 10 9 9 10 10 11 12 12 10 8 9 10 10 11 12 12 14 17 20 22 22 20 21 24 23 22 21 19 21 22 21 24 28 28
13 13 12 10 10 10 10 9 9 9 9 10 11 10 10 9 12 17 19 19 21 23 23 24 23 23 23 23 22 22 21 20 20 18 17 17 17 17 17 16 17 17 17 17 17 17 17 16 14 13 11 11 10 10 11 11 11 11 11 10 11 13 12 12 12 14 14 14 17 19 21 21 21 24 24 23 24 24 22 24 26 24 24 26 28
16 15 13 12 12 12 10 9 9 9 9 10 10 10 10 11 13 17 20 20 21 23 25 26 26 26 26 26 25 25 24 24 23 22 21 20 20 21 21 21 21 20 20 21 21 20 19 18 16 15 14 13 12 12 12 13 12 12 11 12 13 13 12 12 13 14 14 16 18 19 21 21 20 21 23 23 25 27 28 29 29 28 27 27 29
17 16 15 13 13 13 12 11 11 10 10 10 10 10 11 13 14 17 19 20 21 23 26 28 29 29 29 28 28 28 27 27 26 25 25 24 23 24 25 24 24 23 23 23 24 24 23 21 19 17 16 16 16 14 13 13 12 11 12 12 13 13 13 13 15 15 15 17 18 17 20 21 18 20 25 27 30 32 33 32 31 30 30 30 30
17 16 15 14 13 12 12 11 11 11 11 11 12 12 13 14 16 17 19 21 22 24 27 29 31 32 32 32 32 31 30 30 29 28 28 27 26 27 27 27 26 26 26 26 27 28 27 22 20 19 20 20 20 17 14 13 12 12 12 13 13 13 14 15 16 16 17 18 18 17 19 21 22 27 31 32 34 36 36 36 36 34 33 33 34
18 17 15 14 13 12 12 11 11 12 12 13 14 14 14 15 16 19 21 22 23 25 27 30 33 34 34 34 34 34 34 33 32 31 31 31 31 30 30 29 29 30 29 29 30 32 30 26 23 22 22 21 18 15 14 13 13 13 13 14 14 14 16 17 17 18 18 18 19 20 22 24 27 31 32 32 34 36 36 37 38 38 37 37 37
18 17 15 14 14 13 13 13 13 13 13 14 15 16 16 15 16 19 21 23 25 28 29 31 34 36 36 37 38 38 37 36 35 35 35 34 34 33 32 32 33 33 33 32 32 33 32 29 26 24 22 19 15 13 13 14 14 15 15 15 16 16 17 18 19 20 20 20 19 21 24 26 28 31 32 31 33 35 35 36 38 39 40 39 40
18 17 15 14 14 15 15 15 15 15 15 15 16 17 16 15 16 17 18 21 25 28 30 32 35 37 38 39 41 41 40 38 38 38 38 37 37 36 35 36 37 37 37 36 36 37 36 33 31 26 21 17 15 15 15 16 16 17 17 17 18 18 19 19 20 21 22 22 22 23 24 24 26 31 33 32 33 35 36 37 38 40 41 42 42
18 17 16 15 15 15 16 16 16 16 15 15 15 15 15 15 16 17 18 19 21 24 27 30 35 38 40 41 43 44 43 42 42 41 40 40 40 39 39 41 43 42 41 41 39 37 37 34 30 25 20 17 16 17 17 17 18 18 18 18 19 20 21 21 21 22 23 24 24 26 27 27 28 32 34 34 35 37 38 39 40 41 43 43 44
18 18 17 16 15 15 15 15 15 15 15 14 14 14 14 16 17 19 20 20 20 22 24 25 28 32 36 39 40 39 40 43 45 45 44 44 44 43 42 44 46 45 44 42 38 34 32 29 26 23 20 18 19 19 19 18 18 19 19 20 21 22 23 23 24 24 25 26 27 29 30 31 31 34 35 36 36 38 39 40 41 43 45 45 45
19 18 18 17 16 15 15 16 16 16 15 15 15 16 17 18 19 21 22 23 23 25 26 25 23 24 28 31 32 31 32 34 37 39 43 45 45 44 44 46 48 48 46 41 35 31 28 26 24 23 21 20 21 20 20 19 19 20 21 22 23 24 24 25 26 27 27 28 29 31 32 33 34 35 36 36 37 39 41 42 43 45 46 47 47
19 19 18 17 17 17 18 18 18 18 18 18 19 20 21 21 22 23 24 25 26 27 28 28 27 26 27 28 28 29 30 30 29 30 35 40 43 45 46 48 49 48 44 37 31 28 27 26 25 22 21 22 22 20 20 20 21 22 23 24 25 26 26 27 28 28 29 30 31 32 34 35 35 36 36 37 39 41 43 45 46 46 47 47 47
19 20 20 20 21 21 21 22 22 21 22 22 23 24 24 24 25 25 26 27 28 29 30 31 31 31 31 30 30 31 31 30 27 27 30 33 36 39 43 44 43 42 38 33 29 29 28 26 23 21 21 23 22 20 21 22 23 24 25 26 28 28 28 27 28 29 30 31 32 34 35 36 37 37 39 40 41 44 45 46 45 46 46 45 44
20 22 22 23 23 24 24 25 25 25 26 27 28 28 28 28 28 28 28 29 30 32 33 33 33 33 32 32 32 32 33 31 28 28 29 30 31 33 36 38 38 37 36 33 31 31 27 22 20 21 23 23 22 21 22 23 24 26 27 27 29 30 29 28 29 31 32 32 34 35 36 37 38 39 40 41 42 43 44 44 43 43 42 41 40
21 23 24 25 26 27 28 29 29 29 30 30 32 32 32 32 31 31 32 32 32 34 35 35 35 34 34 34 33 33 34 32 30 29 29 31 32 32 34 37 38 37 36 34 32 29 24 19 20 23 23 23 22 22 23 24 25 26 27 27 28 30 31 30 30 31 33 35 36 38 39 40 41 42 43 44 45 45 45 44 42 41 40 39 38
25 26 27 28 29 31 32 33 33 34 34 34 35 35 34 34 34 34 34 34 34 35 35 35 36 35 36 36 35 33 33 33 31 29 30 33 33 34 37 38 35 33 34 33 28 23 19 19 22 24 24 23 23 23 23 24 25 26 27 28 28 28 30 31 31 32 34 36 38 40 41 43 44 44 45 46 47 48 47 45 42 40 39 38 38
32 32 32 33 33 34 34 35 36 36 36 35 35 35 34 34 35 35 35 35 35 35 36 35 35 35 35 35 34 33 33 33 30 29 31 33 34 37 42 40 34 32 34 30 23 19 18 21 24 24 24 24 23 23 24 25 26 27 27 27 28 28 30 32 33 34 36 38 40 41 42 43 43 44 44 45 45 44 43 41 39 38 38 38 39
38 38 38 38 38 39 39 39 39 39 39 38 38 38 38 37 37 37 36 36 36 36 36 36 36 35 35 36 35 33 33 32 30 29 31 31 32 39 43 38 32 30 28 23 20 20 20 23 25 24 24 23 23 24 25 26 27 27 28 27 28 29 30 32 34 36 38 40 41 42 42 42 43 43 43 43 42 40 38 37 37 38 37 38 39
42 43 43 43 43 43 43 44 44 44 45 45 45 45 45 43 42 41 40 40 40 39 38 38 38 37 37 37 36 34 33 31 28 28 30 30 30 34 35 29 24 22 20 21 24 23 22 24 25 24 24 24 24 25 26 27 28 28 28 28 29 30 32 34 36 38 40 41 42 42 42 42 42 42 40 39 38 36 35 36 37 38 38 38 39
45 45 45 45 46 46 46 46 47 48 49 50 50 50 50 49 48 46 45 45 44 44 43 43 43 43 42 41 40 38 35 32 29 28 30 29 28 28 27 23 21 22 23 25 26 24 24 26 25 24 25 25 25 26 27 27 28 28 28 29 30 32 33 35 37 38 39 40 41 42 41 41 40 39 37 37 36 35 35 35 37 37 38 39 40
46 46 47 47 48 48 48 48 48 49 49 50 51 51 51 51 51 50 50 49 47 46 47 46 45 46 46 45 46 44 40 36 33 30 31 31 30 30 29 26 25 27 28 28 27 27 27 26 25 25 26 26 26 27 28 28 28 28 29 30 31 33 34 35 36 37 38 39 40 40 39 38 37 35 35 35 35 35 36 37 37 38 39 40 41
46 46 46 46 47 48 48 49 49 49 49 49 49 49 48 48 48 48 49 51 50 47 47 46 46 46 46 46 48 47 43 40 37 34 34 33 33 33 34 33 30 30 30 30 30 29 28 26 26 26 26 26 27 28 28 28 28 28 29 30 31 32 33 34 35 36 37 38 38 37 36 34 33 33 33 33 34 35 36 37 39 40 41 41 41
42 42 42 43 43 44 45 47 48 48 48 47 47 47 46 46 46 45 44 48 49 47 46 45 45 46 46 45 44 42 40 40 38 36 35 33 32 32 33 32 32 32 32 33 33 32 32 31 30 29 28 28 29 29 28 28 28 29 30 31 32 32 33 34 35 36 36 35 34 33 31 30 31 31 32 32 32 33 35 37 39 40 41 41 39
35 36 36 37 37 38 39 40 41 43 44 43 42 43 43 45 46 44 41 43 46 47 46 45 46 47 47 45 43 39 37 38 38 35 33 31 29 30 30 30 31 32 33 34 35 35 35 34 33 32 31 30 30 30 29 28 29 30 30 30 32 34 34 34 34 34 33 31 30 29 28 28 29 30 30 31 32 33 35 37 38 39 39 38 35
31 31 31 32 33 34 35 36 37 39 40 40 39 39 40 41 43 43 43 44 44 45 46 46 47 47 46 44 43 40 36 34 34 32 32 31 29 28 29 30 31 32 32 34 34 34 34 34 33 33 32 31 31 31 29 28 29 29 29 28 30 31 32 32 31 30 29 27 26 26 26 27 28 28 29 30 31 32 34 35 36 36 36 33 30
28 28 29 30 31 32 33 34 35 36 38 39 39 38 38 39 40 41 44 46 45 44 45 47 48 48 45 43 43 43 42 43 41 34 31 30 29 29 31 33 33 33 33 34 34 34 34 33 33 32 32 31 30 27 25 25 26 26 26 27 27 28 28 29 28 27 26 25 24 24 25 26 27 28 29 30 31 31 32 33 33 33 32 29 26
26 27 28 29 29 29 30 31 32 33 35 36 37 37 37 37 37 38 40 44 46 45 45 45 47 49 48 45 44 42 42 44 41 34 29 29 31 34 36 36 35 36 36 36 35 35 34 33 32 32 32 29 24 22 21 20 20 21 23 25 26 26 26 26 25 24 23 22 22 23 24 25 26 27 29 30 30 31 30 30 30 30 28 25 23
26 27 28 28 28 29 30 31 32 32 32 33 35 35 35 35 36 34 34 37 40 43 44 44 45 48 49 48 46 43 40 37 33 29 30 35 38 38 38 37 38 38 37 36 35 33 31 31 32 32 29 24 20 18 17 16 17 19 22 23 24 25 24 23 23 22 21 21 21 22 23 24 25 27 28 29 30 29 28 28 28 27 25 22 21
24 25 26 27 28 29 31 33 33 33 33 32 33 33 32 32 33 32 31 32 35 37 38 39 41 45 48 48 46 45 42 39 36 33 36 40 42 41 40 40 40 38 35 33 31 28 26 27 28 27 24 20 18 16 16 16 18 19 21 22 22 22 21 21 21 20 20 20 20 21 22 23 25 26 27 27 27 27 26 26 26 24 22 20 19
22 23 24 25 27 27 28 29 29 30 30 28 28 29 28 28 29 30 31 32 32 32 32 33 35 40 44 45 44 41 39 40 41 41 41 42 44 45 44 43 40 37 35 33 30 27 25 25 25 23 20 18 17 17 17 17 18 20 21 20 19 19 19 19 19 19 19 19 20 20 21 22 23 25 25 26 25 24 24 24 24 23 21 19 18
22 23 23 23 23 22 22 22 23 23 23 23 23 24 24 23 25 26 28 30 30 29 29 30 31 34 38 40 40 38 36 36 40 45 46 45 45 44 44 42 38 34 31 28 26 25 24 23 21 19 18 17 17 18 18 18 19 20 20 18 17 16 17 18 18 18 18 18 19 20 21 21 22 23 23 23 23 23 24 23 22 21 20 18 18
21 21 20 19 19 18 19 20 21 21 21 22 23 23 22 20 20 21 23 26 27 27 27 27 27 29 33 34 35 36 35 34 35 39 41 41 40 39 38 36 32 28 25 24 24 23 21 19 18 17 16 17 18 18 18 19 19 19 17 15 15 15 15 16 17 17 17 18 18 19 19 20 20 21 22 22 22 23 23 23 22 21 19 18 18
19 19 18 17 17 18 19 21 22 22 21 22 23 22 20 17 18 21 21 22 25 26 25 24 24 26 29 30 30 32 33 34 35 36 35 32 31 31 31 31 28 25 23 22 22 20 18 16 17 17 17 18 19 19 19 19 18 16 14 13 14 15 14 15 15 16 16 16 17 17 18 19 20 21 21 21 22 23 23 23 22 21 20 18 18
17 16 15 15 17 18 19 21 22 22 21 20 20 19 17 14 18 21 20 19 21 23 22 21 22 24 25 25 26 27 29 31 34 35 34 31 29 28 28 29 27 24 22 22 20 18 17 18 18 18 18 19 19 19 18 17 16 14 12 12 14 14 13 14 14 14 14 15 16 16 17 18 20 21 21 22 22 23 24 24 22 21 19 18 17
15 15 14 15 16 17 18 19 19 19 18 17 16 14 11 13 19 19 17 17 18 18 17 17 20 21 21 21 23 24 26 27 28 29 30 30 31 33 30 28 26 25 24 22 20 19 19 19 18 18 18 19 19 18 16 15 13 12 11 12 13 12 12 13 13 13 13 14 15 16 17 18 19 21 22 23 23 23 23 23 22 21 20 18 17
15 15 14 14 15 15 17 18 18 16 15 14 12 9 8 17 20 16 15 18 17 15 15 17 17 16 16 18 19 21 25 26 26 26 27 27 30 32 31 29 28 27 25 21 20 20 19 19 18 18 18 18 18 17 15 14 12 11 11 12 12 11 12 12 12 12 12 13 14 15 16 18 20 21 22 22 22 22 22 23 22 21 20 19 18
14 14 13 14 14 15 17 18 17 15 13 11 9 5 11 20 19 15 16 19 17 14 15 16 15 13 14 15 16 19 23 25 26 27 26 25 28 31 33 32 28 25 23 20 21 21 19 18 18 17 17 17 16 16 15 14 13 12 11 11 10 11 11 11 11 11 12 12 13 14 16 17 19 20 21 22 22 22 23 23 22 21 19 19 19
13 13 13 13 14 15 17 17 16 14 11 9 6 2 12 19 17 14 15 16 16 15 16 16 14 12 13 16 16 15 17 22 26 27 26 26 28 31 33 29 24 21 20 20 20 20 18 17 17 16 15 16 16 16 15 14 13 12 11 9 9 10 10 10 10 10 11 11 12 14 15 16 18 19 20 21 22 23 23 23 22 22 21 20 20
13 13 13 13 14 15 16 17 16 12 8 7 4 4 11 14 14 14 14 14 14 15 16 14 12 12 13 15 15 14 12 15 22 24 24 26 29 29 26 22 19 18 18 18 18 17 17 16 15 14 15 15 15 15 15 14 13 12 10 8 8 9 10 9 9 9 10 11 11 13 14 15 17 18 19 21 22 23 23 23 23 23 23 21 21
15 13 12 13 14 15 16 17 15 11 7 6 5 8 12 11 9 12 13 13 13 13 13 11 12 13 13 13 14 13 10 10 19 26 27 27 26 22 18 17 17 17 17 17 16 15 15 15 15 15 14 15 15 14 14 14 13 11 8 7 8 9 9 8 8 8 9 10 10 11 12 14 16 17 18 20 21 22 22 23 24 24 24 23 22
18 14 12 12 13 14 15 15 14 10 7 6 9 11 12 10 8 9 11 11 11 11 11 10 11 12 12 13 15 14 11 10 17 24 24 20 19 17 15 15 16 16 16 15 13 13 14 15 15 15 14 14 14 13 13 13 12 9 7 7 8 8 8 8 7 8 8 9 9 10 12 13 14 16 17 19 20 21 21 22 23 24 24 24 23
19 17 14 12 12 13 14 14 13 10 6 5 9 11 10 9 8 9 10 11 10 9 10 10 10 10 9 10 11 12 9 11 16 21 20 16 16 16 15 14 15 15 14 12 12 13 14 15 15 14 14 14 13 12 12 12 10 8 7 7 8 8 8 7 7 7 8 8 9 10 11 12 13 15 16 17 18 19 20 22 23 24 25 25 24
18 18 16 13 12 11 12 12 12 10 7 5 6 7 7 7 7 8 9 10 10 9 9 10 9 9 8 7 7 6 5 8 15 20 18 15 16 16 15 14 15 14 13 13 14 14 14 14 15 15 14 13 12 11 11 10 8 7 7 8 9 9 8 8 7 7 7 8 8 9 10 11 12 13 15 16 17 18 20 21 22 23 24 25 24
16 17 17 15 12 10 10 10 10 9 8 6 6 5 4 4 4 5 6 8 8 9 10 10 9 9 9 7 6 6 7 11 16 17 16 15 15 15 14 14 14 13 14 14 14 14 14 14 14 13 13 12 11 10 9 8 8 7 8 9 9 9 8 8 7 7 7 8 8 9 10 11 11 13 14 15 17 18 19 20 21 22 23 24 24
14 16 16 16 14 11 9 8 8 8 7 6 5 5 4 3 2 2 3 5 7 9 11 11 10 9 8 7 7 9 12 14 14 13 12 13 13 13 13 13 13 14 14 14 14 14 14 13 12 11 11 11 10 9 8 8 8 8 9 9 9 8 7 7 7 7 8 8 8 9 10 11 11 12 13 14 16 17 18 19 20 21 21 22 23
12 14 15 15 14 13 11 8 7 6 6 5 4 4 3 2 2 1 2 4 6 8 11 11 10 8 7 8 10 12 11 11 11 10 10 11 13 14 15 15 14 14 13 13 12 12 12 11 10 10 10 10 9 8 8 8 9 9 9 8 7 7 7 7 7 8 8 8 9 10 10 11 11 12 12 13 14 15 16 17 18 19 20 21 22
Wind_Direction
198 205 206 214 221 228 237 242 251 258 260 262 263 265 268 265 259 256 258 265 263 246 233 223 199 184 178 174 176 177 177 177 175 173 173 172 169 163 156 150 147 146 144 143 143 141 143 146 148 158 164 171 196 220 233 254 277 276 269 260 262 281 292 294 296 296 299 306 313 316 317 318 320 323 325 327 327 326 325 324 323 323 323 322 322
191 194 193 198 206 215 229 237 245 251 253 258 261 264 267 266 263 262 265 267 251 226 221 214 196 187 182 181 185 186 185 184 182 181 179 177 176 172 165 159 158 159 158 162 167 170 179 185 192 205 210 219 235 239 242 261 284 276 264 266 283 289 289 295 300 298 295 297 299 300 302 308 310 312 314 317 319 319 318 319 320 321 323 322 319
181 184 191 197 202 210 224 234 243 247 247 252 259 265 269 266 262 262 259 239 208 205 213 210 199 195 190 190 193 195 196 195 193 193 190 188 193 194 186 180 185 191 194 203 209 212 220 230 239 249 252 252 255 257 254 252 247 253 263 275 284 279 279 289 294 293 299 300 298 297 296 296 300 304 306 309 311 311 310 311 314 315 317 317 315
185 190 195 196 202 212 224 235 244 247 248 254 260 265 266 254 246 239 212 186 186 201 211 208 203 201 199 200 203 203 206 205 204 206 208 215 219 217 218 224 229 231 234 238 241 241 249 262 267 268 270 268 266 265 263 255 245 254 269 276 275 268 268 278 275 282 298 305 306 306 303 301 301 302 306 310 311 311 310 311 314 314 315 315 313
187 187 187 191 206 220 229 237 242 245 251 258 262 263 258 243 229 211 192 186 193 205 211 210 208 207 206 208 209 210 213 214 216 220 223 230 235 236 240 247 250 250 249 250 253 255 259 266 270 271 271 271 271 268 267 261 258 265 274 281 280 269 267 279 282 287 298 303 304 304 305 307 306 308 314 314 314 317 314 313 318 320 317 317 318
180 177 185 200 216 228 234 237 242 247 254 261 264 264 257 242 225 210 201 199 202 208 212 213 214 213 213 214 214 215 219 222 224 228 230 235 240 243 249 256 258 256 254 255 256 256 260 264 268 272 272 273 275 274 273 270 266 267 269 273 277 273 279 289 288 289 294 298 302 304 308 309 307 313 318 314 314 320 314 311 318 319 313 312 314
187 190 202 214 220 223 224 230 239 247 252 257 264 266 258 244 228 218 215 211 209 210 214 216 218 219 219 219 219 219 221 225 228 230 233 237 241 245 250 255 257 256 256 258 260 261 263 265 266 266 266 268 269 269 275 278 275 270 267 267 267 271 286 295 293 296 300 300 303 306 309 309 305 309 312 309 312 318 316 316 319 317 313 312 312
202 208 214 219 218 214 218 230 238 245 253 259 264 265 256 245 235 228 224 220 215 215 218 220 221 223 225 225 226 226 226 228 231 233 235 239 241 244 247 250 254 257 258 260 263 264 264 264 264 264 262 263 261 262 270 276 275 271 269 269 268 273 288 295 293 296 298 296 298 299 300 303 301 302 306 306 308 312 314 316 317 315 314 313 311
204 209 214 219 220 217 221 230 237 243 254 259 262 263 257 248 242 237 231 227 224 221 222 224 224 226 229 230 231 231 231 232 234 236 239 242 243 245 248 250 252 256 259 262 265 265 263 261 262 264 267 268 265 265 269 270 267 266 266 269 273 280 289 291 291 291 290 291 293 293 296 300 297 296 301 304 306 309 313 314 314 314 313 311 310
206 210 215 221 225 225 225 231 237 241 246 249 251 256 259 255 252 248 241 236 233 228 227 227 228 229 231 233 235 236 236 237 239 241 244 246 246 248 251 254 256 257 259 261 264 266 264 260 259 265 272 273 268 267 269 266 264 266 267 272 279 284 286 288 290 291 292 295 296 291 292 294 292 294 301 305 307 309 312 313 312 312 311 310 309
208 213 216 216 219 224 229 233 238 242 244 245 246 249 255 257 257 255 252 247 243 237 234 233 232 232 234 237 239 240 241 242 243 245 246 248 248 250 253 256 259 261 263 264 265 267 266 264 264 267 271 272 270 267 265 264 266 268 271 275 280 284 287 290 292 293 294 296 295 291 290 291 292 295 300 305 306 307 309 310 310 310 309 308 308
212 216 215 214 216 220 224 227 233 241 244 245 246 247 250 253 254 255 254 253 250 245 241 239 238 237 238 240 243 244 245 246 248 248 249 250 252 252 252 255 258 262 266 267 265 266 267 271 276 277 273 272 271 264 257 257 262 266 271 276 281 285 289 291 294 294 295 294 290 285 285 289 293 296 300 303 304 304 305 306 306 306 306 306 306
215 218 217 216 217 218 221 223 228 235 240 244 246 246 248 250 251 252 253 255 255 252 249 245 244 243 243 243 246 248 249 250 250 251 252 253 254 254 254 257 262 266 271 271 268 266 268 274 282 282 276 269 264 256 252 256 262 267 273 278 283 287 290 291 293 294 294 294 292 289 289 292 293 295 299 303 303 303 305 305 305 306 306 306 305
217 221 221 220 219 220 222 222 224 229 234 239 242 246 251 254 256 256 254 254 256 257 255 251 248 249 248 247 249 252 253 252 251 251 253 254 255 256 259 264 269 271 273 273 272 269 268 271 274 273 268 261 256 254 255 259 265 270 277 282 286 290 292 294 296 296 297 298 298 298 299 301 298 298 302 305 304 305 306 306 307 306 306 305 305
221 224 226 228 228 229 229 228 229 231 232 235 242 251 259 263 265 267 266 264 263 262 262 258 251 249 251 252 255 257 258 257 255 253 254 257 258 259 262 266 270 272 272 272 270 268 267 267 265 262 257 252 250 253 258 263 268 274 279 283 287 290 293 296 298 299 301 302 302 303 304 304 303 302 304 305 304 306 306 306 308 307 306 305 304
228 230 233 236 238 240 241 240 238 239 241 246 253 260 266 269 272 274 275 275 272 270 268 265 258 254 255 258 261 263 263 263 261 258 257 258 259 259 260 264 268 271 271 269 266 264 262 255 251 251 250 247 248 254 261 268 273 277 281 285 289 292 296 298 301 303 304 304 304 304 303 303 302 302 302 303 303 305 306 307 309 308 307 306 305
227 231 235 242 248 251 250 248 248 250 253 257 260 264 268 271 273 274 275 276 276 276 274 271 270 268 265 264 265 266 265 265 268 266 263 262 261 260 261 263 266 267 266 262 258 257 252 243 241 244 244 246 250 256 264 271 277 282 287 292 295 297 301 303 303 304 304 303 302 303 303 303 302 302 302 302 303 305 307 308 308 307 306 306 305
233 237 243 250 255 257 256 256 256 257 259 261 264 266 268 270 270 270 271 272 273 273 272 272 271 270 267 266 267 268 268 269 271 270 266 263 262 261 260 259 259 260 258 251 247 247 244 239 239 241 242 247 253 260 268 275 281 286 291 295 297 297 299 302 302 301 301 302 303 305 306 305 305 304 304 304 305 306 306 307 307 305 304 304 305
248 251 254 257 259 259 259 260 260 261 263 265 267 268 268 268 267 266 266 268 268 267 266 266 266 265 264 264 263 265 268 269 270 271 268 265 263 260 256 252 251 252 249 242 238 239 239 239 240 241 244 250 257 265 273 279 285 289 292 296 298 297 298 300 302 302 303 305 306 306 306 305 304 303 302 302 303 304 304 305 304 303 302 301 301
259 260 262 262 262 262 261 262 263 264 265 266 267 268 268 266 265 264 266 266 265 264 263 262 262 262 262 262 262 263 265 266 267 269 270 266 261 258 255 252 250 249 245 238 234 233 235 238 242 244 248 255 262 270 275 280 284 289 294 298 300 300 301 302 303 304 305 306 307 307 306 304 303 302 302 302 303 303 303 304 304 302 300 300 299
270 269 268 267 267 266 265 266 266 265 265 265 265 265 265 264 263 263 264 264 263 262 262 262 263 263 263 263 263 262 262 264 266 268 268 265 259 254 253 250 245 242 243 242 238 233 233 238 242 245 251 257 263 268 273 278 284 291 296 299 300 301 301 301 302 304 305 306 307 306 305 304 304 304 306 307 307 307 308 308 307 305 304 303 302
279 278 276 275 274 272 271 269 268 267 266 264 263 262 261 261 262 261 261 261 261 261 261 262 263 263 264 264 264 262 262 262 264 266 266 264 257 251 247 241 233 232 239 243 241 236 236 239 242 246 251 256 261 267 273 280 286 292 296 298 298 299 299 300 302 303 305 306 306 305 305 304 304 305 306 307 307 307 307 307 306 304 304 304 304
282 281 280 280 279 277 275 273 271 270 269 267 266 266 264 263 261 260 260 260 259 260 260 261 262 262 263 263 263 263 263 262 261 262 262 261 258 251 242 232 225 227 233 240 244 243 239 238 242 247 251 257 263 269 275 282 287 291 294 296 296 296 297 299 301 303 304 305 305 304 303 303 303 304 304 305 305 305 304 303 302 302 303 303 303
282 280 279 279 278 277 276 274 273 272 272 271 271 270 270 268 265 263 261 259 259 259 260 261 262 261 261 263 263 263 263 261 258 258 257 258 259 252 239 227 222 222 227 242 250 247 239 239 244 249 254 259 265 270 277 283 287 290 291 292 293 295 297 299 301 303 303 304 304 303 303 303 302 302 302 302 302 302 301 301 301 302 302 302 302
283 282 280 280 279 278 276 275 273 273 272 272 272 272 271 270 268 265 263 260 259 259 260 262 263 263 263 263 261 261 262 260 255 252 252 253 251 241 232 229 231 232 238 248 252 247 242 243 248 252 256 261 266 272 279 284 287 288 290 291 293 296 298 301 302 303 304 304 303 303 303 302 302 302 301 301 301 301 300 300 301 302 302 302 302
287 286 284 284 283 282 280 279 277 275 274 273 272 272 271 269 267 265 263 260 258 258 260 262 263 264 264 262 260 259 257 256 254 249 246 247 245 239 237 239 239 239 243 247 247 245 244 246 250 254 258 263 267 274 281 285 286 288 290 293 296 298 300 302 303 303 304 302 301 301 301 302 302 301 302 302 304 304 304 304 304 304 303 303 304
288 288 287 286 285 284 283 281 279 278 276 274 272 271 269 268 266 264 262 260 258 256 258 259 259 260 261 260 257 254 250 250 251 247 241 242 243 242 244 246 244 241 242 242 241 241 243 246 250 254 259 265 270 276 281 283 285 289 293 296 299 300 301 302 303 302 300 299 299 300 300 301 301 301 302 303 306 307 307 306 306 304 304 304 305
289 288 287 285 284 282 281 280 279 277 275 273 271 269 267 265 264 263 260 259 256 254 254 255 255 255 256 254 249 246 245 246 246 241 239 241 243 244 246 248 246 244 242 241 242 244 244 246 251 256 262 267 272 277 280 282 287 293 297 299 300 300 301 301 300 298 296 296 297 298 298 298 299 300 302 304 306 307 306 306 305 305 305 306 307
289 287 286 284 283 281 280 279 278 277 276 273 271 268 265 263 262 260 256 254 253 251 249 250 251 250 251 249 247 247 249 244 238 235 237 240 243 245 246 245 245 245 246 247 248 248 249 251 254 256 260 266 273 277 278 282 290 297 301 302 302 302 301 299 296 294 294 295 296 296 297 299 301 302 305 307 308 309 308 307 306 306 307 308 308
290 288 287 286 285 284 282 281 279 278 277 274 271 268 265 263 260 256 251 249 250 248 245 246 248 249 248 248 249 252 252 245 238 238 240 238 237 238 238 237 239 241 242 244 246 247 249 252 253 254 259 267 273 275 278 286 294 299 302 303 302 299 297 295 294 294 294 294 296 297 299 302 304 306 308 309 309 309 307 306 307 307 308 308 307
292 290 290 290 289 287 285 283 282 280 278 276 273 269 266 263 261 255 249 246 247 248 244 242 244 247 248 247 249 253 255 252 249 247 243 237 232 227 226 227 230 232 234 237 240 244 247 248 250 256 264 269 271 275 284 292 298 302 304 304 301 297 294 293 293 293 293 294 298 301 303 306 308 310 310 310 309 307 307 308 309 309 309 307 304
292 292 291 291 290 288 287 285 284 282 280 277 274 270 265 263 261 258 252 247 245 246 245 242 240 243 246 247 247 248 248 245 243 239 234 229 224 222 223 226 227 229 233 236 239 242 245 249 256 263 266 266 270 280 289 294 301 306 306 305 303 299 296 293 291 291 293 298 302 305 307 310 311 312 311 310 310 309 310 311 311 310 307 303 300
295 294 293 292 291 290 288 287 285 283 282 279 276 271 265 261 259 256 252 249 245 244 244 243 240 239 241 244 246 244 241 238 236 231 226 222 219 219 223 225 226 228 231 235 240 245 252 259 264 265 262 261 270 282 286 291 300 305 304 302 301 298 295 293 292 293 297 302 305 308 311 313 314 314 314 313 312 312 313 314 314 312 307 300 296
297 295 294 294 293 291 291 290 288 286 284 281 277 273 265 259 256 251 244 244 245 243 242 243 241 238 239 242 245 246 246 246 243 234 226 223 221 220 221 223 225 228 231 236 243 252 260 264 262 258 256 261 270 275 280 288 296 299 299 297 293 291 292 294 296 299 303 306 309 312 315 316 316 316 317 316 314 315 316 317 316 314 309 302 296
301 298 297 296 295 295 295 295 294 293 290 285 280 275 267 259 256 249 236 234 241 244 242 242 241 240 240 243 246 248 250 250 242 231 224 224 224 224 226 228 231 232 234 238 244 251 255 255 254 254 258 263 266 270 277 286 290 292 292 290 286 287 293 296 299 302 305 308 311 314 316 318 319 320 319 317 316 318 320 321 320 319 314 307 300
304 302 301 300 299 301 303 304 302 300 297 292 287 283 276 266 258 247 230 225 233 242 244 242 240 238 240 243 245 246 246 244 236 226 221 220 221 225 231 235 235 233 234 237 242 245 245 247 250 256 260 260 264 270 275 280 284 285 284 282 283 289 295 297 299 302 305 309 313 316 318 320 322 322 320 319 321 325 327 326 326 325 320 314 306
308 305 303 302 305 310 311 309 306 302 297 294 291 287 283 272 253 233 219 219 227 236 244 245 241 237 238 240 242 242 243 242 238 232 225 222 224 230 235 237 235 231 231 235 236 235 237 242 248 254 257 258 263 268 272 276 279 278 276 279 286 292 295 297 298 301 306 311 314 316 318 321 324 325 325 325 329 331 332 331 331 330 327 322 315
312 307 303 304 310 314 312 308 306 301 296 292 289 286 281 265 234 213 209 216 224 230 239 244 240 235 235 236 237 239 240 241 244 245 241 236 236 237 235 232 230 225 221 222 225 226 231 239 245 249 254 258 262 266 271 274 274 271 272 281 288 291 292 294 296 300 305 309 311 314 320 324 327 330 332 333 335 337 338 337 336 335 334 328 319
314 310 310 315 317 316 315 312 309 305 300 295 289 284 275 245 212 203 205 212 219 226 235 240 236 232 234 236 236 237 238 239 242 246 246 247 251 249 235 222 218 213 209 211 217 222 229 237 243 248 254 258 261 266 269 270 267 267 274 282 284 286 289 290 293 298 303 308 312 318 324 327 330 335 338 340 342 344 343 340 337 336 335 330 322
319 320 324 327 324 323 325 324 318 313 307 299 291 284 259 207 191 195 205 210 213 220 229 235 233 231 235 238 237 236 237 236 237 242 244 245 250 249 233 213 203 202 204 209 215 221 228 237 243 248 251 255 261 266 268 266 264 266 272 276 278 281 284 286 290 298 305 310 316 321 326 329 334 340 343 344 345 345 344 342 340 338 337 335 330
328 327 327 328 329 332 335 334 329 324 318 307 296 283 215 182 180 190 205 208 211 218 229 236 236 233 235 238 235 234 235 234 234 238 240 242 246 240 222 204 198 200 202 208 216 223 231 238 241 244 248 253 259 265 265 262 262 262 264 267 272 275 278 282 288 297 304 310 317 323 328 332 337 342 344 345 344 346 348 349 345 341 340 340 338
335 333 331 332 337 342 342 338 336 334 330 321 311 272 185 177 181 193 203 206 210 216 225 234 235 230 230 232 232 234 235 231 226 224 227 236 239 224 204 193 194 197 199 209 220 226 231 235 235 239 245 250 256 260 258 255 255 254 254 259 264 268 273 279 286 295 305 312 319 325 329 333 338 343 344 345 346 349 352 352 348 344 345 346 345
345 343 341 342 348 352 349 346 345 343 342 341 336 234 176 177 184 193 200 208 212 214 220 228 231 227 227 230 234 243 243 231 223 220 222 226 223 208 193 189 192 195 200 214 224 227 228 229 230 237 246 253 256 256 251 248 247 245 244 248 256 262 268 275 283 294 306 313 319 325 329 334 339 342 343 345 349 351 351 351 351 351 352 352 351
357 350 350 353 358 0 359 355 354 354 357 2 15 141 163 172 181 189 197 207 216 220 226 231 231 230 231 231 237 254 257 228 209 203 200 198 195 190 187 187 190 196 208 219 224 223 223 225 231 242 252 255 254 252 248 246 243 239 236 239 248 256 263 271 281 294 305 312 318 324 330 336 339 340 343 348 351 350 349 351 354 356 356 355 355
6 358 360 2 4 8 8 4 3 7 17 31 73 132 149 157 173 190 199 207 218 225 229 230 228 229 231 231 234 247 257 219 187 180 180 182 181 179 179 183 189 202 216 222 219 218 222 230 240 249 253 252 249 246 245 244 240 234 231 235 244 251 258 267 278 291 302 310 317 324 331 337 339 341 345 349 348 347 348 352 356 357 358 358 358
11 9 11 11 12 16 17 15 16 22 36 66 100 125 141 153 170 188 200 210 219 224 222 221 222 223 228 233 230 229 238 228 196 183 178 176 175 173 176 184 195 209 218 218 217 221 230 240 248 249 247 245 242 239 239 239 235 231 231 236 243 249 256 265 277 287 297 307 315 324 332 336 338 342 346 347 346 346 350 353 355 357 359 360 0
14 16 17 18 21 24 25 26 28 31 41 80 107 121 138 162 180 187 195 206 216 217 210 210 216 220 228 234 222 212 225 235 210 189 174 167 173 181 189 198 206 214 217 219 224 231 238 244 247 243 239 237 233 230 232 233 231 232 236 240 246 252 257 265 275 283 292 304 314 322 329 334 337 342 345 346 346 348 351 354 355 357 359 0 1
17 21 21 22 27 31 33 35 38 40 45 63 93 116 137 162 177 185 194 205 213 214 208 206 211 218 225 230 220 210 215 207 189 180 177 180 188 194 202 208 212 215 218 222 230 237 241 241 238 234 231 228 223 222 226 228 229 234 241 244 249 254 258 265 274 281 291 302 311 317 324 330 335 340 343 343 345 349 354 355 355 356 358 359 359
18 23 26 27 28 33 41 45 46 49 53 59 70 86 104 133 161 181 193 200 205 210 212 211 210 212 218 225 224 207 185 173 172 177 185 193 196 198 203 206 209 213 217 222 229 234 234 230 227 225 224 221 216 216 220 224 230 237 241 243 247 252 258 266 274 282 292 300 307 313 319 324 332 339 341 342 345 350 354 355 355 356 356 357 358
20 26 30 32 33 35 41 50 58 62 63 65 66 68 69 80 111 157 193 208 215 216 214 211 210 213 215 208 188 172 170 177 184 189 192 194 196 199 203 207 213 219 222 223 223 223 222 220 218 216 216 215 212 212 218 226 234 238 239 240 243 248 256 267 277 284 292 298 304 309 314 321 330 337 339 341 345 350 353 354 355 355 355 356 359
25 30 33 35 38 39 40 47 62 75 79 78 69 58 50 56 80 139 234 250 239 221 207 202 203 203 191 175 164 160 166 181 191 191 191 197 202 206 211 217 221 221 218 215 213 214 215 213 209 209 211 212 211 214 222 230 235 235 233 233 239 247 258 269 279 286 292 297 301 306 312 319 326 331 335 341 345 348 350 353 354 355 354 356 359
Height
3124 3126 3128 3129 3130 3131 3131 3131 3131 3130 3130 3129 3129 3129 3130 3129 3129 3129 3130 3131 3133 3135 3136 3137 3136 3136 3136 3137 3137 3138 3138 3138 3139 3139 3139 3140 3140 3141 3141 3141 3142 3142 3143 3143 3144 3144 3145 3145 3146 3146 3147 3147 3148 3148 3149 3149 3150 3150 3150 3151 3151 3152 3152 3151 3150 3150 3150 3150 3150 3150 3150 3150 3149 3149 3149 3148 3148 3147 3147 3146 3146 3145 3144 3144 3144
3123 3125 3127 3128 3129 3129 3129 3129 3130 3129 3129 3129 3129 3129 3128 3128 3127 3127 3127 3128 3130 3133 3135 3136 3136 3136 3136 3137 3137 3138 3138 3139 3139 3139 3140 3140 3141 3141 3141 3142 3142 3143 3143 3144 3144 3144 3145 3145 3146 3146 3147 3147 3147 3148 3148 3149 3150 3149 3149 3149 3150 3150 3151 3150 3150 3149 3149 3149 3149 3149 3149 3148 3148 3147 3147 3147 3146 3145 3144 3144 3143 3142 3141 3140 3140
3122 3123 3125 3126 3127 3127 3127 3128 3128 3128 3128 3128 3128 3128 3127 3127 3126 3126 3126 3127 3129 3131 3134 3135 3135 3135 3136 3136 3137 3137 3138 3138 3139 3139 3140 3140 3141 3141 3142 3142 3143 3143 3143 3144 3144 3144 3145 3145 3146 3146 3146 3147 3147 3147 3147 3148 3149 3149 3148 3148 3148 3149 3150 3150 3150 3149 3148 3148 3148 3147 3147 3147 3146 3146 3145 3145 3144 3143 3142 3141 3140 3140 3139 3139 3137
3121 3122 3123 3124 3125 3126 3126 3127 3127 3128 3128 3128 3128 3127 3127 3126 3126 3125 3126 3127 3129 3131 3133 3134 3134 3135 3135 3136 3136 3137 3137 3138 3138 3139 3139 3140 3140 3141 3141 3142 3142 3143 3143 3143 3144 3144 3144 3145 3145 3146 3146 3146 3146 3146 3146 3147 3148 3147 3147 3147 3147 3148 3148 3149 3149 3148 3147 3147 3146 3146 3145 3145 3144 3144 3143 3142 3141 3141 3140 3139 3137 3136 3136 3136 3135
3120 3121 3122 3123 3124 3124 3125 3126 3126 3127 3127 3127 3127 3127 3127 3126 3125 3126 3127 3128 3129 3130 3132 3133 3134 3134 3135 3135 3136 3136 3137 3137 3138 3138 3139 3139 3140 3140 3141 3141 3142 3142 3142 3143 3143 3143 3143 3144 3144 3144 3145 3145 3145 3145 3145 3146 3146 3146 3146 3146 3146 3146 3147 3148 3147 3147 3147 3146 3145 3144 3144 3143 3142 3141 3141 3140 3139 3139 3138 3137 3136 3134 3132 3132 3132
3118 3120 3121 3122 3122 3123 3123 3124 3125 3125 3126 3126 3126 3126 3126 3126 3125 3126 3127 3128 3129 3130 3131 3132 3133 3134 3134 3135 3135 3135 3136 3136 3137 3137 3138 3138 3139 3139 3139 3140 3141 3141 3141 3141 3142 3142 3142 3142 3142 3143 3143 3143 3144 3144 3144 3144 3145 3145 3145 3146 3146 3145 3145 3146 3146 3146 3146 3145 3144 3142 3141 3141 3140 3140 3139 3138 3137 3138 3137 3136 3136 3135 3132 3130 3130
3118 3119 3120 3121 3121 3122 3122 3123 3123 3124 3124 3125 3125 3125 3125 3125 3125 3126 3127 3127 3128 3129 3130 3131 3132 3133 3133 3133 3134 3134 3135 3135 3136 3136 3137 3137 3137 3137 3138 3139 3139 3140 3140 3140 3140 3141 3141 3141 3141 3141 3141 3142 3142 3142 3142 3142 3143 3143 3143 3144 3144 3143 3143 3144 3144 3144 3144 3143 3142 3141 3140 3139 3138 3137 3137 3136 3135 3135 3134 3133 3133 3133 3131 3129 3128
3117 3118 3119 3119 3120 3121 3121 3122 3122 3123 3123 3123 3123 3123 3123 3124 3124 3125 3126 3126 3127 3128 3129 3129 3130 3131 3131 3132 3132 3133 3133 3134 3134 3135 3135 3135 3135 3136 3136 3137 3137 3138 3138 3138 3139 3139 3139 3139 3139 3139 3140 3140 3140 3140 3141 3141 3141 3141 3141 3141 3141 3141 3141 3142 3142 3142 3142 3142 3141 3140 3139 3138 3137 3135 3134 3133 3132 3131 3131 3130 3130 3129 3128 3127 3125
3115 3116 3116 3117 3118 3119 3120 3120 3121 3121 3121 3121 3121 3121 3122 3122 3123 3123 3124 3125 3125 3126 3127 3127 3128 3129 3130 3130 3130 3131 3131 3132 3132 3133 3133 3133 3133 3133 3133 3134 3134 3135 3136 3136 3136 3136 3136 3136 3137 3138 3138 3138 3138 3138 3139 3139 3139 3139 3139 3139 3139 3139 3140 3139 3139 3140 3140 3139 3139 3138 3137 3136 3135 3133 3132 3131 3130 3128 3128 3127 3126 3126 3124 3123 3123
3113 3113 3114 3114 3115 3116 3117 3118 3118 3118 3119 3119 3119 3120 3120 3121 3121 3122 3122 3123 3124 3124 3125 3125 3126 3127 3128 3128 3128 3129 3129 3129 3130 3130 3130 3131 3131 3131 3131 3131 3132 3132 3133 3133 3133 3133 3133 3134 3135 3136 3136 3136 3136 3136 3136 3137 3137 3137 3137 3137 3137 3137 3137 3137 3137 3137 3137 3137 3137 3136 3135 3134 3133 3131 3130 3129 3127 3125 3124 3123 3122 3121 3121 3119 3119
3111 3111 3112 3113 3113 3114 3114 3115 3115 3116 3117 3117 3118 3118 3118 3119 3120 3120 3120 3121 3121 3122 3123 3123 3124 3125 3125 3125 3126 3126 3126 3127 3128 3128 3128 3128 3128 3128 3128 3129 3129 3129 3130 3131 3131 3131 3131 3132 3133 3134 3134 3133 3133 3133 3134 3134 3135 3135 3135 3135 3135 3135 3135 3135 3134 3134 3134 3134 3134 3133 3132 3131 3130 3128 3127 3127 3124 3122 3121 3119 3118 3117 3116 3115 3114
3109 3109 3110 3111 3112 3112 3113 3113 3114 3114 3115 3115 3116 3116 3116 3117 3118 3118 3118 3119 3119 3120 3120 3120 3121 3122 3123 3123 3123 3123 3123 3125 3125 3125 3125 3125 3125 3126 3126 3126 3126 3127 3127 3128 3129 3129 3129 3129 3129 3131 3131 3131 3131 3131 3131 3132 3132 3132 3133 3132 3132 3132 3132 3132 3131 3131 3131 3131 3131 3131 3129 3129 3127 3124 3124 3124 3122 3120 3119 3117 3116 3113 3112 3111 3110
3106 3107 3108 3108 3109 3110 3111 3111 3112 3112 3113 3114 3114 3114 3114 3115 3115 3116 3116 3116 3116 3116 3117 3117 3118 3118 3119 3120 3119 3119 3120 3122 3122 3122 3122 3122 3122 3123 3123 3123 3123 3124 3124 3124 3125 3125 3125 3125 3125 3126 3128 3129 3129 3129 3130 3130 3130 3130 3130 3130 3130 3130 3129 3129 3129 3128 3128 3127 3127 3127 3126 3126 3124 3121 3120 3120 3119 3116 3115 3114 3112 3110 3108 3107 3105
3104 3104 3105 3106 3107 3107 3108 3109 3110 3110 3111 3111 3112 3112 3113 3113 3113 3113 3113 3113 3113 3113 3113 3113 3114 3114 3115 3116 3115 3115 3116 3117 3118 3118 3119 3119 3119 3120 3120 3120 3119 3120 3121 3121 3121 3121 3122 3123 3123 3123 3124 3126 3126 3126 3127 3127 3127 3127 3127 3127 3127 3126 3126 3126 3126 3125 3124 3123 3123 3122 3121 3122 3121 3118 3116 3116 3115 3113 3111 3109 3108 3106 3104 3102 3100
3101 3102 3102 3103 3104 3105 3105 3106 3107 3108 3108 3109 3109 3110 3111 3111 3111 3111 3111 3110 3111 3110 3110 3110 3110 3110 3110 3110 3110 3111 3111 3111 3112 3113 3114 3115 3116 3116 3116 3115 3114 3115 3116 3117 3118 3118 3119 3120 3120 3121 3122 3123 3123 3123 3124 3124 3124 3124 3124 3124 3124 3123 3123 3122 3122 3121 3121 3120 3119 3118 3117 3117 3116 3114 3113 3112 3110 3109 3107 3105 3103 3101 3099 3097 3095
3099 3099 3100 3100 3101 3102 3102 3103 3104 3105 3106 3106 3107 3107 3108 3108 3108 3108 3108 3108 3108 3107 3107 3107 3107 3106 3106 3106 3106 3106 3106 3106 3107 3109 3110 3110 3111 3112 3112 3111 3110 3111 3111 3113 3114 3115 3115 3116 3116 3117 3119 3120 3120 3120 3120 3120 3121 3120 3120 3120 3120 3120 3119 3119 3118 3117 3117 3116 3115 3115 3114 3113 3112 3111 3109 3108 3106 3104 3102 3100 3099 3096 3093 3091 3089
3096 3096 3097 3098 3099 3099 3100 3100 3101 3102 3103 3103 3104 3104 3105 3105 3105 3105 3105 3105 3105 3104 3103 3103 3101 3101 3101 3102 3102 3102 3102 3102 3104 3105 3105 3106 3107 3107 3107 3107 3106 3106 3107 3109 3110 3110 3112 3112 3113 3114 3116 3116 3117 3117 3117 3117 3117 3117 3116 3116 3116 3115 3115 3115 3114 3114 3113 3113 3112 3112 3111 3109 3108 3107 3105 3103 3102 3100 3097 3096 3094 3091 3088 3086 3084
3094 3094 3095 3096 3096 3096 3097 3097 3098 3098 3099 3100 3100 3101 3101 3102 3102 3102 3102 3102 3101 3101 3100 3099 3098 3098 3098 3098 3098 3097 3098 3099 3100 3101 3101 3102 3102 3102 3103 3103 3102 3101 3102 3105 3106 3106 3108 3109 3110 3111 3113 3113 3113 3114 3114 3113 3113 3113 3113 3112 3112 3112 3112 3112 3111 3111 3110 3109 3109 3107 3106 3105 3103 3102 3100 3099 3097 3095 3093 3091 3089 3086 3084 3081 3079
3092 3092 3092 3093 3093 3093 3093 3093 3094 3095 3095 3096 3096 3097 3097 3098 3098 3098 3098 3098 3098 3097 3097 3096 3095 3095 3095 3094 3094 3094 3093 3095 3096 3096 3097 3098 3098 3098 3098 3098 3097 3097 3098 3100 3101 3103 3104 3105 3107 3108 3109 3110 3110 3110 3110 3110 3110 3110 3110 3109 3108 3108 3108 3109 3108 3107 3106 3105 3104 3103 3102 3101 3100 3099 3097 3096 3094 3092 3089 3087 3085 3082 3079 3077 3075
3089 3089 3089 3089 3089 3089 3090 3090 3090 3091 3092 3092 3092 3093 3093 3093 3093 3094 3094 3094 3094 3093 3093 3092 3092 3092 3091 3091 3091 3091 3090 3090 3092 3093 3093 3093 3094 3095 3094 3093 3093 3094 3094 3095 3097 3099 3100 3101 3103 3105 3105 3106 3106 3107 3107 3107 3107 3107 3107 3107 3106 3104 3104 3104 3104 3103 3102 3101 3100 3099 3098 3097 3095 3094 3092 3090 3088 3086 3084 3082 3080 3078 3075 3073 3071
3084 3085 3085 3085 3085 3085 3085 3085 3086 3086 3087 3087 3087 3088 3089 3089 3089 3089 3089 3089 3089 3089 3089 3088 3088 3088 3087 3087 3087 3087 3087 3086 3087 3088 3089 3089 3090 3091 3089 3088 3089 3090 3090 3092 3093 3094 3096 3099 3101 3101 3102 3103 3103 3104 3104 3105 3105 3105 3104 3104 3103 3102 3101 3100 3100 3100 3098 3097 3096 3095 3094 3092 3090 3088 3085 3083 3080 3078 3076 3074 3073 3071 3069 3067 3066
3079 3079 3080 3080 3080 3080 3080 3080 3080 3081 3081 3082 3082 3082 3083 3084 3084 3084 3085 3084 3084 3084 3084 3084 3083 3083 3083 3082 3082 3083 3083 3083 3083 3084 3085 3085 3085 3085 3083 3081 3084 3086 3087 3088 3089 3091 3093 3096 3097 3098 3099 3099 3100 3101 3101 3102 3101 3101 3101 3101 3100 3099 3098 3097 3096 3096 3095 3094 3093 3091 3090 3088 3086 3084 3081 3079 3077 3074 3072 3070 3068 3066 3065 3063 3061
3074 3074 3074 3074 3074 3074 3074 3074 3074 3074 3075 3076 3076 3076 3077 3078 3079 3079 3079 3079 3079 3079 3079 3079 3079 3079 3078 3078 3078 3078 3078 3078 3079 3080 3080 3081 3081 3080 3078 3076 3078 3082 3083 3084 3085 3088 3091 3093 3094 3095 3096 3096 3097 3098 3098 3098 3098 3098 3098 3097 3097 3096 3095 3094 3093 3092 3091 3090 3089 3087 3086 3084 3082 3080 3078 3075 3073 3071 3069 3067 3065 3063 3061 3059 3057
3067 3067 3067 3067 3068 3068 3068 3068 3068 3068 3068 3068 3068 3069 3070 3071 3072 3073 3073 3073 3074 3074 3075 3074 3074 3074 3074 3074 3074 3074 3074 3074 3075 3076 3076 3077 3077 3077 3076 3074 3076 3079 3081 3081 3082 3085 3088 3090 3090 3092 3092 3093 3094 3094 3094 3095 3095 3095 3094 3094 3093 3093 3092 3091 3090 3089 3088 3086 3084 3083 3081 3079 3077 3076 3074 3071 3069 3067 3065 3063 3061 3059 3057 3055 3053
3061 3060 3060 3060 3060 3060 3060 3060 3060 3060 3060 3060 3060 3061 3062 3063 3064 3065 3066 3067 3067 3068 3069 3069 3069 3069 3069 3069 3070 3070 3070 3070 3071 3072 3073 3073 3074 3074 3074 3073 3075 3077 3078 3079 3081 3083 3085 3086 3087 3088 3089 3090 3090 3091 3091 3092 3091 3091 3091 3090 3090 3089 3088 3087 3086 3084 3083 3081 3080 3078 3076 3075 3073 3071 3069 3067 3065 3063 3061 3059 3057 3055 3053 3050 3048
3054 3053 3052 3052 3051 3051 3051 3051 3051 3052 3052 3052 3052 3053 3054 3054 3055 3057 3058 3059 3061 3062 3062 3063 3063 3063 3063 3064 3064 3064 3065 3066 3067 3068 3069 3070 3071 3071 3071 3072 3073 3074 3076 3077 3079 3080 3082 3083 3084 3085 3086 3087 3087 3088 3088 3088 3088 3088 3087 3086 3085 3085 3084 3083 3081 3080 3079 3077 3075 3074 3072 3071 3069 3067 3065 3063 3061 3058 3056 3054 3052 3050 3048 3046 3043
3047 3046 3045 3045 3044 3043 3043 3042 3042 3043 3043 3043 3043 3044 3045 3045 3046 3048 3049 3050 3052 3055 3056 3057 3058 3057 3056 3057 3057 3057 3059 3060 3061 3062 3064 3065 3067 3068 3069 3069 3070 3071 3073 3074 3076 3077 3078 3080 3081 3082 3083 3083 3084 3084 3085 3084 3084 3084 3083 3082 3081 3080 3079 3078 3077 3076 3075 3073 3072 3070 3069 3067 3065 3063 3061 3059 3057 3055 3052 3050 3047 3045 3043 3041 3039
3041 3040 3039 3038 3037 3036 3036 3035 3034 3034 3034 3035 3035 3036 3037 3037 3037 3040 3041 3042 3044 3047 3049 3050 3051 3051 3050 3050 3050 3051 3052 3054 3055 3057 3058 3060 3062 3064 3065 3066 3066 3067 3069 3071 3072 3074 3075 3076 3077 3079 3080 3080 3081 3081 3081 3081 3080 3080 3079 3078 3077 3076 3075 3074 3073 3072 3071 3070 3068 3067 3065 3063 3062 3060 3058 3056 3054 3052 3049 3046 3043 3040 3038 3036 3034
3036 3034 3033 3032 3031 3030 3030 3028 3028 3027 3027 3027 3027 3028 3029 3029 3030 3032 3034 3034 3035 3038 3040 3042 3043 3044 3043 3044 3045 3046 3047 3049 3050 3051 3053 3055 3058 3059 3060 3061 3062 3064 3066 3067 3069 3070 3071 3073 3074 3076 3077 3077 3078 3078 3078 3077 3077 3076 3075 3074 3072 3071 3071 3070 3069 3068 3067 3066 3065 3063 3062 3060 3058 3056 3055 3052 3050 3048 3045 3042 3039 3036 3034 3032 3030
3031 3029 3028 3027 3026 3025 3024 3023 3022 3021 3020 3020 3020 3021 3021 3022 3022 3024 3025 3026 3027 3029 3032 3034 3036 3037 3039 3040 3041 3042 3044 3045 3046 3047 3048 3049 3052 3055 3057 3058 3059 3061 3063 3064 3065 3067 3068 3070 3071 3072 3073 3074 3074 3074 3074 3074 3073 3072 3071 3071 3069 3068 3067 3066 3065 3064 3063 3062 3061 3060 3058 3057 3055 3053 3051 3049 3047 3044 3042 3039 3036 3033 3030 3028 3026
3026 3025 3024 3022 3021 3020 3019 3017 3016 3015 3014 3013 3013 3013 3014 3014 3015 3016 3017 3018 3020 3022 3025 3028 3029 3031 3033 3035 3036 3037 3038 3039 3041 3044 3045 3044 3046 3050 3053 3054 3056 3058 3059 3060 3062 3063 3065 3066 3067 3068 3070 3070 3071 3070 3070 3069 3069 3068 3067 3067 3066 3065 3064 3063 3062 3061 3060 3059 3058 3056 3055 3054 3052 3050 3048 3046 3044 3041 3038 3035 3032 3030 3027 3025 3024
3022 3021 3020 3018 3017 3015 3014 3013 3011 3010 3008 3007 3006 3006 3007 3007 3008 3008 3010 3012 3014 3016 3018 3022 3023 3025 3026 3028 3031 3033 3033 3031 3034 3038 3041 3042 3043 3046 3049 3051 3052 3053 3055 3056 3058 3059 3061 3062 3064 3065 3066 3067 3067 3067 3066 3066 3066 3065 3064 3063 3062 3061 3061 3060 3059 3059 3057 3056 3055 3053 3052 3051 3049 3047 3045 3042 3040 3037 3035 3032 3030 3027 3025 3023 3021
3018 3017 3016 3014 3012 3011 3009 3008 3006 3005 3003 3002 3000 3000 3000 3001 3002 3002 3004 3005 3007 3009 3012 3015 3017 3019 3021 3023 3026 3029 3030 3029 3029 3032 3036 3038 3040 3043 3045 3046 3047 3048 3050 3052 3054 3056 3058 3060 3061 3062 3062 3063 3063 3063 3063 3063 3063 3062 3061 3060 3059 3058 3058 3057 3057 3056 3054 3053 3052 3051 3049 3048 3046 3044 3042 3039 3037 3034 3032 3030 3027 3024 3022 3020 3019
3015 3013 3012 3010 3008 3006 3004 3002 3000 2999 2997 2996 2995 2994 2994 2995 2996 2997 2999 3000 3002 3004 3006 3009 3012 3014 3016 3018 3021 3024 3026 3027 3028 3029 3032 3034 3037 3039 3039 3040 3041 3044 3046 3049 3052 3054 3056 3057 3058 3058 3058 3059 3060 3060 3060 3060 3060 3059 3058 3057 3056 3056 3055 3054 3053 3052 3051 3050 3049 3048 3047 3045 3044 3041 3039 3037 3034 3032 3030 3027 3025 3022 3019 3017 3016
3011 3010 3008 3006 3004 3002 2999 2997 2995 2993 2991 2990 2989 2988 2989 2989 2990 2991 2993 2995 2998 3000 3002 3005 3007 3009 3012 3014 3017 3020 3022 3024 3024 3026 3028 3031 3033 3035 3036 3037 3039 3042 3044 3047 3049 3051 3053 3054 3054 3054 3055 3056 3057 3057 3057 3057 3056 3056 3055 3055 3054 3053 3052 3051 3050 3050 3049 3048 3047 3046 3045 3043 3041 3039 3037 3035 3033 3031 3028 3025 3022 3019 3017 3015 3013
3008 3006 3005 3002 3000 2998 2996 2993 2991 2989 2987 2986 2985 2984 2984 2985 2985 2986 2989 2992 2995 2997 2999 3000 3003 3006 3008 3011 3013 3016 3019 3020 3021 3021 3023 3026 3029 3032 3034 3035 3037 3039 3041 3043 3045 3047 3049 3050 3050 3051 3052 3053 3054 3054 3054 3054 3053 3053 3052 3052 3051 3050 3049 3049 3048 3047 3047 3046 3045 3044 3043 3041 3040 3038 3036 3034 3031 3028 3026 3023 3020 3017 3014 3012 3011
3006 3003 3001 2999 2997 2995 2992 2990 2988 2986 2984 2983 2982 2981 2981 2981 2981 2983 2986 2990 2993 2995 2995 2996 3000 3003 3005 3007 3010 3012 3015 3018 3018 3019 3021 3024 3026 3029 3030 3032 3033 3035 3037 3039 3041 3043 3045 3046 3047 3048 3049 3050 3050 3051 3051 3050 3050 3050 3049 3048 3047 3047 3047 3046 3046 3045 3045 3044 3043 3042 3041 3040 3038 3036 3034 3032 3029 3026 3023 3020 3018 3015 3013 3010 3009
3003 3001 2999 2997 2995 2992 2990 2988 2986 2984 2982 2980 2978 2978 2978 2978 2979 2981 2984 2987 2990 2992 2992 2994 2997 2999 3001 3004 3006 3009 3011 3013 3015 3017 3019 3022 3023 3025 3027 3028 3030 3032 3034 3035 3038 3040 3041 3043 3043 3045 3046 3047 3047 3047 3047 3047 3047 3046 3045 3045 3045 3045 3045 3044 3044 3044 3043 3043 3042 3041 3040 3038 3037 3035 3033 3030 3027 3024 3021 3019 3016 3013 3011 3009 3007
3002 3000 2997 2995 2992 2990 2988 2985 2983 2981 2979 2977 2975 2975 2975 2975 2977 2980 2983 2985 2988 2990 2991 2992 2994 2995 2998 3001 3003 3006 3008 3010 3011 3013 3016 3019 3020 3022 3024 3025 3027 3029 3031 3033 3035 3037 3038 3039 3041 3042 3043 3043 3043 3043 3044 3044 3044 3043 3042 3042 3043 3043 3043 3043 3043 3042 3042 3041 3040 3039 3038 3037 3035 3033 3030 3028 3025 3022 3019 3017 3015 3012 3010 3008 3006
3000 2998 2995 2993 2991 2988 2986 2983 2981 2978 2976 2975 2973 2973 2973 2974 2977 2980 2983 2985 2987 2989 2989 2990 2991 2993 2996 2998 3001 3003 3005 3007 3009 3010 3013 3015 3017 3019 3022 3023 3024 3026 3028 3030 3032 3034 3035 3037 3038 3039 3040 3040 3040 3040 3041 3041 3040 3039 3040 3040 3041 3041 3041 3041 3041 3041 3040 3040 3039 3038 3037 3035 3033 3031 3029 3026 3023 3021 3019 3016 3014 3011 3009 3006 3004
2998 2996 2994 2992 2990 2987 2984 2982 2979 2977 2975 2973 2972 2972 2972 2974 2977 2980 2982 2984 2986 2987 2987 2987 2989 2992 2994 2997 2999 3000 3002 3003 3005 3007 3009 3011 3013 3015 3019 3021 3021 3023 3026 3028 3030 3031 3033 3034 3036 3036 3037 3037 3037 3037 3037 3037 3037 3037 3038 3039 3039 3040 3040 3040 3040 3039 3039 3038 3037 3036 3035 3033 3031 3029 3027 3025 3023 3021 3018 3015 3013 3010 3008 3005 3003
2997 2995 2993 2991 2989 2986 2983 2981 2978 2976 2974 2973 2972 2972 2972 2974 2977 2979 2981 2982 2985 2986 2986 2986 2988 2991 2993 2995 2997 2998 2998 3000 3002 3004 3006 3008 3010 3012 3014 3016 3018 3021 3024 3026 3027 3029 3030 3032 3033 3033 3034 3034 3034 3034 3034 3034 3035 3035 3036 3037 3038 3038 3039 3039 3039 3038 3038 3037 3036 3035 3034 3032 3030 3028 3026 3024 3022 3019 3017 3015 3013 3010 3007 3004 3002
2996 2994 2992 2990 2988 2985 2983 2980 2978 2976 2974 2973 2973 2973 2974 2975 2977 2979 2981 2983 2984 2985 2985 2986 2988 2990 2992 2994 2995 2996 2996 2997 2999 3000 3002 3004 3006 3009 3012 3014 3017 3020 3022 3024 3025 3027 3028 3029 3029 3030 3031 3031 3031 3031 3032 3032 3033 3034 3034 3035 3036 3037 3037 3037 3037 3037 3036 3035 3034 3033 3032 3031 3029 3027 3025 3023 3021 3018 3016 3014 3012 3009 3006 3004 3001
2995 2993 2992 2989 2987 2985 2983 2980 2978 2976 2975 2974 2973 2974 2975 2977 2978 2980 2981 2983 2984 2984 2985 2986 2988 2990 2991 2993 2994 2995 2995 2994 2995 2997 2999 3001 3004 3008 3011 3014 3016 3019 3020 3022 3024 3025 3025 3026 3026 3027 3028 3029 3029 3030 3030 3031 3032 3032 3032 3033 3034 3035 3036 3036 3036 3035 3035 3034 3033 3032 3031 3030 3028 3027 3025 3022 3020 3018 3016 3014 3011 3008 3006 3003 3001
2995 2993 2991 2989 2987 2985 2983 2981 2979 2977 2976 2975 2974 2975 2977 2979 2980 2981 2982 2983 2984 2984 2985 2987 2988 2989 2990 2992 2993 2994 2994 2994 2995 2996 2998 3000 3004 3007 3010 3013 3015 3017 3019 3021 3022 3022 3023 3023 3024 3025 3026 3027 3027 3028 3029 3030 3030 3030 3031 3031 3033 3034 3034 3034 3034 3034 3033 3033 3032 3031 3030 3029 3027 3026 3024 3022 3020 3018 3015 3013 3010 3008 3005 3003 3000
2996 2993 2991 2989 2988 2986 2984 2982 2980 2979 2978 2977 2976 2977 2978 2980 2981 2982 2983 2984 2984 2985 2985 2987 2988 2989 2990 2991 2992 2993 2994 2996 2997 2998 2999 3002 3004 3007 3009 3011 3013 3015 3017 3019 3020 3020 3021 3021 3022 3023 3024 3025 3026 3027 3028 3028 3029 3029 3029 3030 3031 3032 3033 3033 3033 3033 3032 3032 3031 3030 3029 3028 3027 3025 3023 3021 3020 3017 3015 3012 3010 3008 3005 3002 3000
2997 2994 2992 2990 2988 2987 2985 2983 2982 2981 2980 2979 2979 2979 2979 2980 2981 2982 2983 2984 2984 2985 2985 2986 2987 2989 2990 2991 2992 2993 2994 2996 2997 2999 3001 3003 3005 3007 3008 3010 3012 3014 3016 3017 3018 3018 3019 3020 3021 3022 3023 3023 3024 3025 3026 3027 3028 3028 3028 3029 3030 3031 3031 3032 3032 3031 3031 3030 3030 3029 3028 3027 3026 3024 3023 3021 3019 3017 3014 3012 3010 3007 3005 3002 3000
2998 2995 2993 2991 2990 2988 2987 2985 2984 2983 2983 2982 2981 2981 2981 2981 2982 2982 2983 2984 2985 2985 2986 2987 2988 2989 2990 2990 2991 2993 2994 2995 2997 2999 3002 3003 3005 3006 3008 3009 3011 3013 3014 3015 3016 3017 3018 3019 3020 3021 3021 3022 3022 3023 3024 3026 3026 3027 3027 3028 3029 3030 3030 3030 3030 3030 3030 3029 3029 3028 3027 3026 3025 3024 3022 3020 3019 3016 3014 3012 3009 3007 3005 3002 3000
2999 2997 2995 2993 2991 2990 2988 2987 2986 2985 2985 2984 2984 2984 2983 2983 2983 2983 2984 2985 2985 2985 2986 2987 2988 2989 2990 2991 2992 2993 2994 2996 2998 3000 3002 3003 3004 3006 3007 3009 3010 3012 3013 3014 3016 3017 3017 3018 3019 3019 3020 3020 3021 3022 3023 3024 3025 3026 3027 3027 3028 3028 3029 3029 3029 3029 3028 3028 3027 3027 3026 3025 3024 3023 3021 3020 3018 3016 3014 3012 3009 3007 3005 3003 3000
3000 2998 2996 2994 2993 2991 2990 2989 2988 2987 2986 2986 2986 2986 2985 2985 2985 2985 2985 2985 2986 2986 2987 2988 2989 2990 2990 2991 2992 2993 2995 2997 2999 3000 3002 3003 3004 3005 3006 3008 3009 3011 3012 3013 3014 3015 3016 3016 3017 3017 3018 3019 3020 3020 3022 3023 3024 3025 3026 3026 3027 3027 3027 3027 3027 3027 3027 3026 3026 3026 3025 3024 3023 3022 3020 3019 3017 3015 3013 3011 3009 3007 3005 3003 3000
3001 2999 2998 2996 2994 2993 2992 2991 2990 2989 2988 2988 2988 2987 2987 2987 2986 2986 2986 2986 2985 2986 2987 2988 2989 2991 2992 2993 2994 2995 2996 2998 2999 3000 3001 3002 3003 3004 3006 3007 3008 3010 3011 3012 3012 3013 3014 3015 3016 3016 3017 3018 3019 3019 3021 3022 3023 3024 3025 3025 3026 3026 3026 3026 3026 3026 3025 3025 3025 3024 3023 3022 3021 3020 3019 3018 3016 3015 3013 3011 3009 3007 3005 3003 3000